TimeEDT,TemperatureF,Dew PointF,Humidity,Sea Level PressureIn,VisibilityMPH,Wind Direction,Wind SpeedMPH,Gust SpeedMPH,PrecipitationIn,Events,Conditions,WindDirDegrees,DateUTC
12:56 AM,72.0,68.0,87,29.68,10.0,SW,9.2,-,N/A,,Clear,220,2011-10-14 04:56:00
1:56 AM,72.0,68.0,87,29.66,10.0,SW,6.9,-,N/A,,Partly Cloudy,220,2011-10-14 05:56:00
2:56 AM,71.1,68.0,90,29.65,10.0,SW,6.9,-,N/A,,Clear,230,2011-10-14 06:56:00
3:56 AM,72.0,69.1,91,29.63,10.0,WSW,3.5,-,N/A,,Clear,250,2011-10-14 07:56:00
4:56 AM,71.1,66.9,87,29.62,7.0,SSW,8.1,-,0.03,Rain,Light Rain,210,2011-10-14 08:56:00
5:56 AM,70.0,64.9,84,29.61,9.0,WSW,5.8,-,0.00,,Mostly Cloudy,250,2011-10-14 09:56:00
7:56 AM,68.0,62.1,81,29.65,8.0,WSW,13.8,20.7,N/A,,Clear,250,2011-10-14 11:56:00
8:56 AM,69.1,60.1,73,29.65,10.0,WSW,15.0,23.0,N/A,,Clear,240,2011-10-14 12:56:00
9:56 AM,68.0,61.0,78,29.67,10.0,WSW,18.4,26.5,N/A,,Scattered Clouds,250,2011-10-14 13:56:00
10:56 AM,68.0,59.0,73,29.69,10.0,West,20.7,25.3,N/A,,Scattered Clouds,260,2011-10-14 14:56:00
11:56 AM,70.0,60.1,71,29.69,10.0,WSW,12.7,20.7,N/A,,Partly Cloudy,250,2011-10-14 15:56:00
12:56 PM,71.1,61.0,70,29.68,10.0,SW,16.1,21.9,N/A,,Clear,230,2011-10-14 16:56:00
1:56 PM,73.0,61.0,66,29.67,10.0,SW,15.0,23.0,N/A,,Partly Cloudy,230,2011-10-14 17:56:00
2:56 PM,73.9,62.1,66,29.66,10.0,SW,17.3,23.0,N/A,,Partly Cloudy,220,2011-10-14 18:56:00
3:56 PM,75.9,57.0,52,29.66,10.0,WSW,13.8,21.9,N/A,,Partly Cloudy,250,2011-10-14 19:56:00
4:56 PM,75.9,51.1,42,29.68,10.0,West,17.3,24.2,N/A,,Scattered Clouds,260,2011-10-14 20:56:00
5:56 PM,73.9,50.0,43,29.71,10.0,West,12.7,-,N/A,,Clear,280,2011-10-14 21:56:00
6:56 PM,71.1,50.0,47,29.75,10.0,West,10.4,-,N/A,,Clear,270,2011-10-14 22:56:00
7:56 PM,69.1,48.9,49,29.79,10.0,West,6.9,-,N/A,,Clear,270,2011-10-14 23:56:00
9:56 PM,69.1,52.0,54,29.85,10.0,WSW,6.9,-,N/A,,Clear,240,2011-10-15 01:56:00
10:56 PM,69.1,55.0,61,29.87,10.0,WSW,6.9,-,N/A,,Clear,240,2011-10-15 02:56:00
11:56 PM,70.0,55.0,59,29.87,10.0,WSW,8.1,-,N/A,,Clear,250,2011-10-15 03:56:00